[[{"header":{"parameterUnit":"m.s-1","parameterCategory":1,"la1":30.2991,"la2":30.254,"lo1":-89.0895,"lo2":-89.0444,"dy":0.0017,"dx":0.0017,"nx":28,"ny":28,"refTime":"2025-05-29T21:00:00:Z","depth":0,"parameterNumber":2,"parameterNumberName":"U-component_of_WINDS"},"data":[0,0,0,0,0,0,0,0,0,0,0,0,0,0,0,0,0,0,0,0,0,0,0,0,0,0,0,0,0,0,0,0,0,0,0,0,0,0,0,0,0,0,0,0,0,0,0,0,0,0,0,0,0,0,0,0,0,0,2.0553,2.0553,0,2.0601,2.0601,2.0602,2.0606,2.0606,2.0605,2.0605,2.0658,2.066,2.0662,0,0,0,0,0,0,0,0,0,0,0,0,0,2.047,2.0472,2.0553,2.0553,2.0554,2.0601,2.0601,2.0602,2.0606,2.0606,2.0605,2.0604,2.0657,2.066,2.0662,0,0,0,0,0,0,0,0,0,0,0,0,0,2.0511,2.0472,2.0553,2.0562,2.0563,2.06,2.0601,2.0602,2.0606,2.0606,2.0605,2.0604,2.0657,2.0659,2.0662,2.0695,0,0,2.0671,2.0672,0,0,0,0,0,0,0,0,2.0509,2.0514,2.056,2.0561,2.0563,2.0597,2.0592,2.0634,2.0607,2.059,2.0605,2.0604,2.0638,2.0643,2.0654,2.0698,2.07,2.0671,2.0673,2.0674,2.0675,0,0,0,0,0,0,0,2.0506,2.0512,2.0572,2.0561,2.0562,2.0565,2.057,2.06,2.0618,2.0591,2.0592,2.0597,2.0639,2.0651,2.0655,2.0701,2.0671,2.0674,2.0675,2.0676,2.0776,2.0777,0,0,0,0,0,0,2.0501,2.051,2.057,2.0573,2.0533,2.0567,2.0573,2.0587,2.0618,2.0622,2.0598,2.0597,2.0646,2.0652,2.0657,2.0698,2.0674,2.0677,2.0678,2.0775,2.0776,2.0777,0,0,0,0,0,0,2.0499,2.0506,2.0568,2.0542,2.055,2.0569,2.0585,2.0588,2.0599,2.0623,2.0626,2.0606,2.0646,2.0653,2.0686,2.07,2.0678,2.0681,2.0774,2.0775,2.0776,2.078,0,0,0,0,0,0,2.0496,2.0505,2.0517,2.0542,2.0551,2.0595,2.0586,2.0589,2.0604,2.0604,2.0631,2.0635,2.0646,2.0681,2.0688,2.0703,2.0683,2.0773,2.0774,2.0776,2.0778,2.0781,2.0783,0,0,0,0,0,2.0493,2.0517,2.0517,2.0525,2.0566,2.0596,2.0601,2.0612,2.0605,2.0617,2.0633,2.0634,2.0697,2.0685,2.0693,2.0708,2.0772,2.0774,2.0776,2.0777,2.078,2.0783,0,0,0,0,0,0,2.0494,2.052,2.0521,2.0553,2.0572,2.0596,2.0612,2.0615,2.0637,2.0636,2.065,2.0656,2.0688,2.0702,2.0688,2.0743,2.0734,2.0738,2.0732,2.0735,2.0738,2.0734,2.0685,0,0,0,0,0,2.0497,2.0518,2.054,2.0566,2.0576,2.0592,2.0606,2.0612,2.0633,2.0642,2.0659,2.0681,2.0706,2.0721,2.0745,2.0781,2.0787,2.0796,2.0798,2.08,2.0803,2.0824,2.0828,2.0784,2.0784,2.0784,0,0,2.0505,2.0522,2.0534,2.0567,2.0582,2.0605,2.0599,2.0623,2.064,2.0646,2.0677,2.0691,2.0716,2.0751,2.0767,2.0763,2.0817,2.0803,2.0804,2.0806,2.0826,2.083,2.0834,2.0785,2.0785,2.0785,0,0,2.0531,2.0545,2.0568,2.0584,2.0608,2.0619,2.0624,2.0649,2.0658,2.069,2.0694,2.0716,2.0758,2.0776,2.0791,2.0824,2.0827,2.0832,2.0845,2.0864,2.0868,2.0871,2.0883,2.0887,2.0835,2.0835,2.0835,0,2.0538,2.057,2.058,2.0604,2.0619,2.0624,2.0648,2.0664,2.0694,2.0705,2.07,2.0753,2.0771,2.081,2.0818,2.083,2.0837,2.0829,2.0866,2.0869,2.0873,2.0884,2.0889,2.0836,2.0836,2.0836,2.0836,0,2.0578,2.0601,2.0617,2.0645,2.0662,2.0686,2.0701,2.0717,2.0723,2.0735,2.0768,2.0789,2.0818,2.0828,2.0834,2.0868,2.0865,2.0863,2.0854,2.0877,2.0888,2.0893,2.0836,2.0836,2.0836,2.0836,0,0,2.0604,2.0638,2.0643,2.0656,2.0683,2.0702,2.0727,2.0754,2.0768,2.0789,2.0811,2.0847,2.0846,2.0863,2.0871,2.0889,2.0914,2.0885,2.0886,2.0889,2.0954,2.0954,2.0959,2.0917,2.0918,2.0918,2.0951,0,2.0632,2.0675,2.0686,2.0723,2.0745,2.0751,2.0773,2.0793,2.0806,2.0827,2.0842,2.0867,2.0863,2.0873,2.0891,2.0907,2.0927,2.0905,2.0938,2.0939,2.0931,2.0965,2.0966,2.0996,2.0956,2.0957,2.0957,0,2.067,2.0691,2.0731,2.0755,2.0765,2.0784,2.081,2.0831,2.0854,2.0862,2.0881,2.0888,2.0916,2.0907,2.0946,2.0931,2.0946,2.0956,2.0958,2.096,2.0949,2.0969,2.1005,2.101,2.0964,2.0964,2.0963,0,2.0685,2.0723,2.0752,2.0763,2.0793,2.0806,2.082,2.0842,2.0858,2.0881,2.0892,2.0919,2.0933,2.0955,2.097,2.0961,2.1008,2.1,2.1017,2.1016,2.1025,2.1024,2.1064,2.1036,2.1036,2.1036,2.1036,0,2.0715,2.0739,2.0759,2.0776,2.0804,2.0817,2.0844,2.0858,2.0878,2.09,2.0908,2.0928,2.0946,2.097,2.0982,2.1013,2.102,2.1028,2.1031,2.1027,2.1026,2.1036,2.1034,2.1037,2.1037,2.1036,2.1036,0,2.0735,2.0749,2.0781,2.0807,2.0814,2.0833,2.0855,2.0874,2.0887,2.0914,2.0921,2.0942,2.097,2.0987,2.1023,2.1031,2.1066,2.1068,2.1057,2.1058,2.1074,2.1072,2.1121,2.1129,2.1095,2.1096,2.1096,0,2.0753,2.0771,2.0798,2.0813,2.0826,2.0849,2.0865,2.0879,2.0896,2.0924,2.094,2.0968,2.0991,2.1036,2.1055,2.1083,2.1086,2.1101,2.109,2.1086,2.1086,2.1084,2.1086,2.1103,2.1103,2.1103,2.1103,0,2.0783,2.0789,2.0811,2.0836,2.0854,2.0875,2.0895,2.0907,2.0926,2.0944,2.0972,2.099,2.1026,2.1054,2.1084,2.11,2.1105,2.1107,2.1112,2.1108,2.1101,2.1105,2.1062,2.1106,2.1105,2.1105,2.1105,2.1105,2.0802,2.0819,2.0841,2.0865,2.0882,2.0901,2.092,2.0935,2.0958,2.0988,2.0996,2.1025,2.105,2.109,2.1106,2.113,2.1128,2.1136,2.1138,2.1139,2.1139,2.1097,2.1136,2.1136,2.1136,2.1136,2.1136,0,2.0832,2.0847,2.0869,2.0897,2.0917,2.092,2.0943,2.096,2.0985,2.1007,2.1029,2.1062,2.109,2.1112,2.1141,2.1156,2.1159,2.1163,2.1162,2.1165,2.114,2.1132,2.116,2.116,2.116,2.116,2.116,2.116,2.085,2.0878,2.0888,2.0925,2.094,2.0968,2.0981,2.1,2.1017,2.1053,2.1075,2.1089,2.1112,2.1142,2.1169,2.1175,2.1185,2.1188,2.1194,2.117,2.1167,2.1165,2.1157,2.119,2.119,2.1218,2.1218,2.1218]},{"header":{"parameterUnit":"m.s-1","parameterCategory":1,"la1":30.2991,"la2":30.254,"lo1":-89.0895,"lo2":-89.0444,"dy":0.0017,"dx":0.0017,"nx":28,"ny":28,"refTime":"2025-05-29T21:00:00:Z","depth":0,"parameterNumber":3,"parameterNumberName":"V-component_of_WINDS"},"data":[0,0,0,0,0,0,0,0,0,0,0,0,0,0,0,0,0,0,0,0,0,0,0,0,0,0,0,0,0,0,0,0,0,0,0,0,0,0,0,0,0,0,0,0,0,0,0,0,0,0,0,0,0,0,0,0,0,0,1.2204,1.2205,0,1.2295,1.2296,1.2297,1.2269,1.2267,1.2265,1.2263,1.2358,1.2363,1.2367,0,0,0,0,0,0,0,0,0,0,0,0,0,1.2003,1.2007,1.2204,1.2205,1.2207,1.2295,1.2296,1.2298,1.2269,1.2267,1.2265,1.2263,1.2357,1.2362,1.2367,0,0,0,0,0,0,0,0,0,0,0,0,0,1.2092,1.2008,1.2204,1.2203,1.2204,1.2295,1.2297,1.2298,1.227,1.2267,1.2264,1.2261,1.2355,1.2362,1.2368,1.2466,0,0,1.2388,1.2391,0,0,0,0,0,0,0,0,1.2087,1.21,1.2202,1.2203,1.2204,1.2268,1.226,1.2354,1.2271,1.2245,1.2263,1.226,1.2331,1.2339,1.2363,1.247,1.2475,1.2388,1.2392,1.2395,1.2397,0,0,0,0,0,0,0,1.2081,1.2095,1.224,1.2204,1.2205,1.2197,1.2207,1.2278,1.2303,1.2247,1.2245,1.2256,1.2331,1.2356,1.2365,1.2476,1.2388,1.2394,1.2398,1.24,1.2661,1.2664,0,0,0,0,0,0,1.2074,1.209,1.2237,1.2243,1.2137,1.2203,1.2214,1.225,1.2302,1.2307,1.2259,1.2255,1.2347,1.2357,1.2368,1.2481,1.2395,1.2401,1.2405,1.2658,1.2662,1.2665,0,0,0,0,0,0,1.207,1.2088,1.2234,1.2166,1.2184,1.221,1.2251,1.2254,1.2279,1.2311,1.2315,1.228,1.2345,1.2359,1.244,1.2484,1.2404,1.241,1.2655,1.2659,1.2664,1.2712,0,0,0,0,0,0,1.2064,1.2086,1.2125,1.2167,1.2188,1.2306,1.2254,1.2258,1.229,1.2286,1.2332,1.2337,1.2344,1.243,1.2446,1.2492,1.2415,1.2651,1.2657,1.2662,1.2706,1.2717,1.2727,0,0,0,0,0,1.2057,1.2137,1.2127,1.2145,1.2237,1.2308,1.232,1.2325,1.2294,1.2332,1.2351,1.2336,1.2477,1.2439,1.2457,1.2505,1.2648,1.2655,1.2662,1.2702,1.2715,1.2727,0,0,0,0,0,0,1.2101,1.2143,1.2132,1.2228,1.2264,1.2304,1.2352,1.2341,1.2388,1.2382,1.2386,1.2397,1.2479,1.2501,1.2458,1.2599,1.2558,1.2568,1.2582,1.2595,1.2605,1.2597,1.242,0,0,0,0,0,1.2122,1.2177,1.221,1.2291,1.2309,1.2327,1.2359,1.2359,1.2398,1.2413,1.2439,1.2477,1.2528,1.2563,1.2614,1.2709,1.2716,1.275,1.276,1.2769,1.2778,1.2824,1.2838,1.2688,1.2688,1.2688,0,0,1.2166,1.2195,1.223,1.23,1.2329,1.2383,1.2341,1.2403,1.2443,1.2423,1.25,1.2519,1.2562,1.2649,1.2689,1.2669,1.282,1.2777,1.2784,1.2788,1.2832,1.2846,1.2859,1.2692,1.2692,1.2691,0,0,1.2272,1.2302,1.2369,1.2397,1.244,1.245,1.2466,1.2506,1.2517,1.2594,1.2578,1.2626,1.2717,1.2746,1.2773,1.2883,1.2869,1.2899,1.2953,1.2998,1.3009,1.302,1.3055,1.3068,1.2908,1.2908,1.2908,0,1.2322,1.2404,1.2406,1.2467,1.2496,1.2478,1.2545,1.2573,1.263,1.265,1.2627,1.2736,1.2764,1.2855,1.2881,1.2905,1.292,1.2894,1.3007,1.3018,1.3028,1.3061,1.3075,1.2912,1.2911,1.2911,1.2911,0,1.246,1.2517,1.2566,1.2618,1.2653,1.2718,1.2727,1.2762,1.2758,1.277,1.2845,1.2877,1.293,1.2952,1.2951,1.3041,1.3027,1.3006,1.2965,1.3045,1.3076,1.309,1.2916,1.2915,1.2914,1.2913,0,0,1.26,1.2648,1.2666,1.2686,1.2729,1.2772,1.2833,1.2884,1.2911,1.2951,1.2999,1.3074,1.3052,1.3082,1.3083,1.3123,1.3202,1.3096,1.3097,1.3111,1.3298,1.3312,1.3327,1.3193,1.3195,1.3197,1.3293,0,1.2707,1.2814,1.2814,1.2912,1.2961,1.2942,1.2994,1.3025,1.3036,1.3079,1.3092,1.3143,1.3113,1.313,1.3169,1.3184,1.3239,1.3178,1.3236,1.3238,1.3224,1.3344,1.336,1.345,1.3306,1.3308,1.331,0,1.2848,1.2887,1.2988,1.3017,1.3038,1.3085,1.3128,1.317,1.3203,1.3208,1.3238,1.3231,1.329,1.3247,1.3326,1.3284,1.3308,1.3318,1.3322,1.3326,1.3278,1.3349,1.3479,1.3491,1.333,1.3328,1.3327,0,1.2934,1.3013,1.3082,1.3101,1.3138,1.317,1.3187,1.3217,1.3245,1.3282,1.33,1.3345,1.3369,1.3402,1.3406,1.3375,1.3484,1.3443,1.3488,1.3487,1.3511,1.3509,1.3644,1.3531,1.353,1.353,1.353,0,1.3053,1.3115,1.312,1.3163,1.3229,1.3229,1.3295,1.3309,1.3334,1.3377,1.3364,1.3405,1.3408,1.3449,1.3453,1.3515,1.3527,1.3531,1.3531,1.3531,1.353,1.3545,1.3538,1.3534,1.3533,1.3532,1.3532,0,1.3161,1.3168,1.3241,1.3268,1.3276,1.3324,1.3346,1.3385,1.3393,1.3448,1.346,1.3474,1.3521,1.3527,1.3584,1.3586,1.3659,1.3654,1.3648,1.3646,1.3689,1.3683,1.3836,1.3854,1.3732,1.3733,1.3734,0,1.3236,1.3282,1.3312,1.3338,1.3356,1.3401,1.3427,1.3427,1.3456,1.3492,1.3526,1.3571,1.3607,1.3683,1.3697,1.3738,1.3732,1.3782,1.3738,1.3735,1.3728,1.3724,1.3726,1.379,1.3792,1.3793,1.3794,0,1.3365,1.3364,1.3403,1.3442,1.3474,1.3505,1.3534,1.3557,1.356,1.3592,1.3638,1.3666,1.372,1.3764,1.3803,1.382,1.3806,1.3807,1.3819,1.3819,1.3811,1.3812,1.3667,1.3804,1.3803,1.3802,1.3801,1.3801,1.3456,1.3493,1.3518,1.3561,1.3582,1.3608,1.3644,1.3654,1.3693,1.3736,1.3733,1.3783,1.3809,1.3861,1.3879,1.3917,1.39,1.3919,1.3923,1.3927,1.3929,1.3807,1.3925,1.3924,1.3924,1.3924,1.3924,0,1.358,1.3594,1.3633,1.3672,1.3704,1.3687,1.3717,1.3745,1.3788,1.3813,1.3847,1.3898,1.3938,1.3954,1.3993,1.402,1.4014,1.403,1.4027,1.403,1.3944,1.3928,1.4033,1.4033,1.4033,1.4033,1.4033,1.4033,1.3649,1.371,1.3711,1.3781,1.3794,1.3842,1.3859,1.3882,1.3901,1.3957,1.399,1.3999,1.4019,1.4059,1.4094,1.4097,1.4111,1.4128,1.4129,1.4048,1.4037,1.4026,1.4011,1.4132,1.4132,1.4211,1.4212,1.4212]}]]